TimeHST,TemperatureF,Dew PointF,Humidity,Sea Level PressureIn,VisibilityMPH,Wind Direction,Wind SpeedMPH,Gust SpeedMPH,PrecipitationIn,Events,Conditions,WindDirDegrees,DateUTC
12:53 AM,66.9,64.0,90,30.07,10.0,WNW,5.8,-,N/A,,Partly Cloudy,290,2012-01-28 10:53:00
1:53 AM,66.9,64.0,90,30.06,10.0,NW,5.8,-,N/A,,Partly Cloudy,320,2012-01-28 11:53:00
2:53 AM,66.9,64.0,90,30.05,10.0,WNW,4.6,-,N/A,,Scattered Clouds,300,2012-01-28 12:53:00
3:00 AM,66.2,64.4,94,30.05,10.0,WNW,4.6,-,N/A,,Mostly Cloudy,300,2012-01-28 13:00:00
3:53 AM,68.0,64.9,90,30.04,10.0,WNW,5.8,-,N/A,,Mostly Cloudy,300,2012-01-28 13:53:00
4:38 AM,69.8,66.2,88,30.05,10.0,North,5.8,-,N/A,,Scattered Clouds,360,2012-01-28 14:38:00
4:53 AM,70.0,66.9,90,30.04,10.0,North,5.8,-,N/A,,Mostly Cloudy,350,2012-01-28 14:53:00
5:53 AM,72.0,68.0,87,30.06,10.0,NE,12.7,-,N/A,,Mostly Cloudy,40,2012-01-28 15:53:00
6:03 AM,71.6,68.0,88,30.06,10.0,NE,11.5,-,N/A,,Scattered Clouds,40,2012-01-28 16:03:00
6:53 AM,72.0,66.9,84,30.08,10.0,NE,11.5,-,N/A,,Scattered Clouds,50,2012-01-28 16:53:00
7:53 AM,73.0,66.9,81,30.09,10.0,ENE,11.5,-,N/A,,Scattered Clouds,60,2012-01-28 17:53:00
8:53 AM,75.0,68.0,79,30.11,10.0,ENE,10.4,-,N/A,,Scattered Clouds,70,2012-01-28 18:53:00
9:53 AM,75.9,66.9,74,30.13,10.0,ENE,11.5,-,N/A,,Clear,60,2012-01-28 19:53:00
10:53 AM,77.0,66.9,71,30.13,10.0,NE,12.7,-,N/A,,Partly Cloudy,50,2012-01-28 20:53:00
11:53 AM,78.1,66.9,68,30.12,10.0,NE,13.8,-,N/A,,Clear,50,2012-01-28 21:53:00
12:53 PM,78.1,66.9,68,30.10,10.0,NE,12.7,-,N/A,,Scattered Clouds,50,2012-01-28 22:53:00
1:53 PM,79.0,68.0,69,30.08,10.0,NE,13.8,-,N/A,,Scattered Clouds,50,2012-01-28 23:53:00
2:53 PM,78.1,68.0,71,30.07,7.0,ENE,11.5,-,N/A,,Partly Cloudy,60,2012-01-29 00:53:00
3:53 PM,78.1,66.9,68,30.07,10.0,NE,12.7,-,N/A,,Scattered Clouds,50,2012-01-29 01:53:00
4:53 PM,75.9,66.9,74,30.09,10.0,ENE,11.5,-,N/A,,Scattered Clouds,60,2012-01-29 02:53:00
5:53 PM,75.0,66.0,73,30.11,10.0,ENE,12.7,-,N/A,,Scattered Clouds,60,2012-01-29 03:53:00
6:51 PM,73.4,64.4,73,30.13,10.0,NE,16.1,-,N/A,,Partly Cloudy,50,2012-01-29 04:51:00
6:53 PM,73.0,64.0,73,30.13,10.0,NE,15.0,-,N/A,,Partly Cloudy,50,2012-01-29 04:53:00
6:56 PM,73.4,64.4,73,30.13,10.0,NE,15.0,-,N/A,,Partly Cloudy,50,2012-01-29 04:56:00
7:53 PM,73.0,64.0,73,30.15,10.0,NE,15.0,-,N/A,,Clear,40,2012-01-29 05:53:00
8:53 PM,73.0,64.9,76,30.17,10.0,NE,12.7,-,N/A,,Clear,50,2012-01-29 06:53:00
9:53 PM,73.0,64.9,76,30.17,10.0,NE,12.7,-,N/A,,Partly Cloudy,50,2012-01-29 07:53:00
10:53 PM,73.0,64.0,73,30.17,10.0,NE,12.7,-,N/A,,Partly Cloudy,50,2012-01-29 08:53:00
11:53 PM,73.0,64.0,73,30.16,10.0,ENE,15.0,-,N/A,,Clear,60,2012-01-29 09:53:00